N2QDK-2 Weather Reports


Display with metric or nautical units.
time (UTC)temp
F
wind
direction
speed
MPH
gust
MPH
rain 1hr
in
rain 24hr
in
rain mn
in
humidity
%
barometer
mb
20170822110028 73 165 0.0 2.0 0.00 0.00 0.00 88 1011.2
20170822103024 72 170 0.0 6.0 0.00 0.00 0.00 88 1011.6
20170822100023 72 217 2.0 5.0 0.00 0.00 0.00 88 1011.8
20170822093022 71 227 0.0 0.0 0.00 0.00 0.00 88 1012.0
20170822090021 71 140 0.0 0.0 0.00 0.00 0.00 88 1012.2
20170822083020 70 140 0.0 0.0 0.00 0.00 0.00 88 1012.5
20170822075949 70 213 0.0 0.0 0.00 0.00 0.00 89 1013.1
20170822073018 69 213 0.0 0.0 0.00 0.00 0.00 91 1013.4
20170822070017 69 213 0.0 0.0 0.00 0.00 0.00 93 1013.8
20170822063016 69 213 0.0 0.0 0.00 0.00 0.00 93 1014.4
20170822055945 70 214 0.0 0.0 0.00 0.00 0.00 93 1014.9
20170822052944 70 214 0.0 0.0 0.00 0.00 0.00 93 1015.4
20170822045944 70 214 0.0 0.0 0.00 0.00 0.00 93 1015.8
20170822043013 71 214 0.0 0.0 0.00 0.00 0.00 92 1016.0
20170822040012 71 214 0.0 0.0 0.00 0.00 0.00 92 1016.2
20170822032941 71 214 0.0 0.0 0.00 0.00 0.00 92 1016.2
20170822030010 71 214 0.0 0.0 0.00 0.00 0.00 91 1016.4
20170822023009 72 214 0.0 0.0 0.00 0.00 0.00 90 1016.8
20170822020008 73 214 0.0 0.0 0.00 0.00 0.00 89 1016.7
20170822013007 74 214 0.0 0.0 0.00 0.00 0.00 86 1016.8
20170822010007 75 214 0.0 0.0 0.00 0.00 0.00 85 1016.9
20170822003006 77 214 0.0 0.0 0.00 0.00 0.00 81 1016.6
20170822000005 79 214 0.0 0.0 0.00 0.00 0.00 77 1016.6
20170821233004 81 214 0.0 0.0 0.00 0.00 0.00 72 1017.0
20170821230003 83 209 0.0 0.0 0.00 0.00 0.00 68 1016.9
20170821223002 84 238 0.0 0.0 0.00 0.00 0.00 66 1016.8
20170821220032 83 275 0.0 3.0 0.00 0.00 0.00 67 1017.0
20170821213001 84 306 0.0 2.0 0.00 0.00 0.00 64 1017.2
20170821210030 84 299 0.0 3.0 0.00 0.00 0.00 64 1017.5
20170821203029 83 36 0.0 5.0 0.00 0.00 0.00 64 1017.6
20170821195958 81 108 0.0 6.0 0.00 0.00 0.00 67 1017.7
20170821193027 81 10 0.0 3.0 0.00 0.00 0.00 69 1017.7
20170821190026 80 10 0.0 8.0 0.00 0.00 0.00 70 1017.8
20170821183025 82 346 0.0 8.0 0.00 0.00 0.00 65 1018.2
20170821180025 85 203 2.0 5.0 0.00 0.00 0.00 57 1018.1
20170821173009 85 71 0.0 6.0 0.00 0.00 0.00 59 1018.3
20170821170023 84 107 0.0 5.0 0.00 0.00 0.00 62 1018.6
20170821163022 83 88 0.0 6.0 0.00 0.00 0.00 62 1018.9
20170821160021 81 118 2.0 6.0 0.00 0.00 0.00 66 1019.0
20170821153005 80 318 2.0 5.0 0.00 0.00 0.00 66 1019.0
20170821145949 79 150 0.0 5.0 0.00 0.00 0.00 66 1019.2
20170821143003 78 256 2.0 5.0 0.00 0.00 0.00 65 1019.3
20170821140017 76 177 0.0 8.0 0.00 0.00 0.00 68 1019.7
20170821133017 73 100 0.0 5.0 0.00 0.00 0.00 71 1019.8
20170821130015 71 124 0.0 5.0 0.00 0.00 0.00 76 1019.8
20170821123014 68 146 0.0 2.0 0.00 0.00 0.00 80 1019.5
20170821120014 66 118 0.0 2.0 0.00 0.00 0.00 83 1019.6
20170821113013 65 143 0.0 0.0 0.00 0.00 0.00 85 1019.6